| time (UTC) | temp F | wind direction | speed MPH | gust MPH | rain 1hr in | rain 24hr in | rain mn in | humidity % | barometer mb |
| 20260906151507 | 83 | 219 | 5.0 | 0.0 | 0.00 | 0.00 | 0.00 | 66 | 1010.5 |
| 20260906150013 | 81 | 161 | 5.0 | 0.0 | 0.00 | 0.00 | 0.00 | 69 | 1010.3 |
| 20260906144507 | 81 | 208 | 5.0 | 0.0 | 0.00 | 0.00 | 0.00 | 72 | 1010.3 |
| 20260906143113 | 79 | 167 | 5.0 | 0.0 | 0.00 | 0.00 | 0.00 | 74 | 1010.3 |
| 20260906140016 | 78 | 205 | 5.0 | 0.0 | 0.00 | 0.00 | 0.00 | 75 | 1010.1 |
| 20260906134603 | 78 | 214 | 4.0 | 0.0 | 0.00 | 0.00 | 0.00 | 78 | 1010.2 |
| 20260906133010 | 77 | 202 | 4.0 | 0.0 | 0.00 | 0.00 | 0.00 | 81 | 1010.0 |
| 20260906131506 | 75 | 184 | 3.0 | 0.0 | 0.00 | 0.00 | 0.00 | 83 | 1010.0 |
| 20260906130006 | 75 | 171 | 3.0 | 0.0 | 0.00 | 0.00 | 0.00 | 84 | 1009.6 |
| 20260906124502 | 74 | 161 | 2.0 | 0.0 | 0.00 | 0.00 | 0.00 | 84 | 1009.3 |
| 20260906123013 | 74 | 151 | 3.0 | 0.0 | 0.00 | 0.00 | 0.00 | 83 | 1009.3 |
| 20260906121607 | 74 | 164 | 2.0 | 0.0 | 0.00 | 0.00 | 0.00 | 82 | 1009.1 |
| 20260906114502 | 74 | 229 | 1.0 | 0.0 | 0.00 | 0.00 | 0.00 | 83 | 1008.6 |
| 20260906113104 | 73 | 207 | 1.0 | 0.0 | 0.00 | 0.00 | 0.00 | 84 | 1008.4 |
| 20260906111607 | 73 | 250 | 0.0 | 0.0 | 0.00 | 0.00 | 0.00 | 85 | 1008.4 |
| 20260906110004 | 72 | 317 | 0.0 | 0.0 | 0.00 | 0.00 | 0.00 | 86 | 1008.4 |
| 20260906104507 | 72 | 337 | 0.0 | 0.0 | 0.00 | 0.00 | 0.00 | 86 | 1008.1 |
| 20260906101608 | 72 | 337 | 0.0 | 0.0 | 0.00 | 0.00 | 0.00 | 85 | 1008.1 |
| 20260906094507 | 73 | 211 | 0.0 | 0.0 | 0.00 | 0.00 | 0.00 | 84 | 1007.7 |
| 20260906091503 | 73 | 226 | 2.0 | 0.0 | 0.00 | 0.00 | 0.00 | 82 | 1007.7 |
| 20260906090139 | 74 | 195 | 2.0 | 0.0 | 0.00 | 0.00 | 0.00 | 81 | 1007.8 |
| 20260906084625 | 74 | 189 | 3.0 | 0.0 | 0.00 | 0.00 | 0.00 | 81 | 1008.0 |
| 20260906083103 | 74 | 212 | 4.0 | 0.0 | 0.00 | 0.00 | 0.00 | 80 | 1008.0 |
| 20260906081504 | 74 | 201 | 3.0 | 0.0 | 0.00 | 0.00 | 0.00 | 79 | 1008.2 |
| 20260906080003 | 75 | 190 | 3.0 | 0.0 | 0.00 | 0.00 | 0.00 | 79 | 1008.2 |
| 20260906074603 | 75 | 185 | 3.0 | 0.0 | 0.00 | 0.00 | 0.00 | 78 | 1008.4 |
| 20260906073003 | 76 | 163 | 4.0 | 0.0 | 0.00 | 0.00 | 0.00 | 76 | 1008.7 |
| 20260906071507 | 76 | 169 | 5.0 | 0.0 | 0.00 | 0.00 | 0.00 | 75 | 1008.8 |
| 20260906070005 | 76 | 166 | 5.0 | 0.0 | 0.00 | 0.00 | 0.00 | 73 | 1009.2 |
| 20260906064603 | 77 | 176 | 4.0 | 0.0 | 0.00 | 0.00 | 0.00 | 72 | 1009.1 |
| 20260906063005 | 77 | 173 | 5.0 | 0.0 | 0.00 | 0.00 | 0.00 | 72 | 1009.0 |
| 20260906061508 | 78 | 156 | 4.0 | 0.0 | 0.00 | 0.00 | 0.00 | 71 | 1009.3 |
| 20260906060008 | 78 | 161 | 5.0 | 0.0 | 0.00 | 0.00 | 0.00 | 70 | 1009.5 |
| 20260906054505 | 78 | 140 | 4.0 | 0.0 | 0.00 | 0.00 | 0.00 | 69 | 1009.4 |
| 20260906053008 | 79 | 121 | 5.0 | 0.0 | 0.00 | 0.00 | 0.00 | 70 | 1009.1 |
| 20260906051504 | 79 | 147 | 7.0 | 0.0 | 0.00 | 0.00 | 0.00 | 70 | 1009.3 |
| 20260906050004 | 80 | 161 | 7.0 | 0.0 | 0.00 | 0.00 | 0.00 | 69 | 1009.5 |
| 20260906044620 | 80 | 163 | 5.0 | 0.0 | 0.00 | 0.00 | 0.00 | 68 | 1009.4 |
| 20260906043002 | 81 | 153 | 7.0 | 0.0 | 0.00 | 0.00 | 0.00 | 66 | 1009.5 |
| 20260906040105 | 82 | 148 | 4.0 | 0.0 | 0.00 | 0.00 | 0.00 | 58 | 1009.3 |
| 20260906033103 | 83 | 126 | 4.0 | 0.0 | 0.00 | 0.00 | 0.00 | 53 | 1008.9 |
| 20260906030003 | 83 | 175 | 2.0 | 0.0 | 0.00 | 0.00 | 0.00 | 54 | 1008.4 |
| 20260906024504 | 83 | 152 | 1.0 | 0.0 | 0.00 | 0.00 | 0.00 | 55 | 1008.2 |
| 20260906023106 | 82 | 106 | 0.0 | 0.0 | 0.00 | 0.00 | 0.00 | 57 | 1008.1 |
| 20260906021506 | 82 | 106 | 0.0 | 0.0 | 0.00 | 0.00 | 0.00 | 56 | 1007.8 |
| 20260906020106 | 83 | 106 | 0.0 | 0.0 | 0.00 | 0.00 | 0.00 | 55 | 1007.5 |
| 20260906014604 | 83 | 103 | 0.0 | 0.0 | 0.00 | 0.00 | 0.00 | 55 | 1007.4 |
| 20260906013104 | 83 | 127 | 1.0 | 0.0 | 0.00 | 0.00 | 0.00 | 55 | 1007.5 |
| 20260906010035 | 85 | 142 | 0.0 | 0.0 | 0.00 | 0.00 | 0.00 | 52 | 1007.2 |
| 20260906004504 | 87 | 122 | 1.0 | 0.0 | 0.00 | 0.00 | 0.00 | 51 | 1007.3 |
| 20260906003105 | 88 | 111 | 2.0 | 0.0 | 0.00 | 0.00 | 0.00 | 50 | 1007.2 |
| 20260906001609 | 89 | 111 | 2.0 | 0.0 | 0.00 | 0.00 | 0.00 | 49 | 1006.9 |
| 20260906000007 | 90 | 116 | 2.0 | 0.0 | 0.00 | 0.00 | 0.00 | 48 | 1006.8 |
| 20260905234503 | 90 | 114 | 2.0 | 0.0 | 0.00 | 0.00 | 0.00 | 47 | 1006.8 |
| 20260905233103 | 91 | 130 | 2.0 | 0.0 | 0.00 | 0.00 | 0.00 | 47 | 1006.9 |
| 20260905230123 | 89 | 118 | 2.0 | 0.0 | 0.00 | 0.00 | 0.00 | 49 | 1006.8 |
| 20260905224506 | 89 | 126 | 3.0 | 0.0 | 0.00 | 0.00 | 0.00 | 50 | 1006.9 |
| 20260905223016 | 91 | 88 | 3.0 | 0.0 | 0.00 | 0.00 | 0.00 | 47 | 1006.6 |
| 20260905221608 | 90 | 83 | 2.0 | 0.0 | 0.00 | 0.00 | 0.00 | 46 | 1006.9 |
| 20260905220007 | 91 | 168 | 3.0 | 0.0 | 0.00 | 0.00 | 0.00 | 45 | 1006.7 |
| 20260905214508 | 92 | 103 | 2.0 | 0.0 | 0.00 | 0.00 | 0.00 | 47 | 1006.6 |
| 20260905213105 | 93 | 70 | 2.0 | 0.0 | 0.00 | 0.00 | 0.00 | 45 | 1006.7 |
| 20260905210104 | 91 | 144 | 4.0 | 0.0 | 0.00 | 0.00 | 0.00 | 48 | 1007.3 |
| 20260905204612 | 90 | 155 | 3.0 | 0.0 | 0.00 | 0.00 | 0.00 | 47 | 1007.5 |
| 20260905203104 | 91 | 63 | 3.0 | 0.0 | 0.00 | 0.00 | 0.00 | 47 | 1007.6 |
| 20260905201609 | 91 | 78 | 3.0 | 0.0 | 0.00 | 0.00 | 0.00 | 48 | 1007.7 |
| 20260905200003 | 92 | 172 | 4.0 | 0.0 | 0.00 | 0.00 | 0.00 | 47 | 1007.7 |
| 20260905194602 | 92 | 71 | 2.0 | 0.0 | 0.00 | 0.00 | 0.00 | 48 | 1008.3 |
| 20260905193015 | 90 | 60 | 2.0 | 0.0 | 0.00 | 0.00 | 0.00 | 52 | 1008.6 |
| 20260905191501 | 91 | 183 | 4.0 | 0.0 | 0.00 | 0.00 | 0.00 | 51 | 1008.8 |
| 20260905190004 | 90 | 72 | 5.0 | 0.0 | 0.00 | 0.00 | 0.00 | 53 | 1009.0 |
| 20260905184503 | 89 | 172 | 3.0 | 0.0 | 0.00 | 0.00 | 0.00 | 52 | 1009.3 |
| 20260905183003 | 90 | 161 | 5.0 | 0.0 | 0.00 | 0.00 | 0.00 | 54 | 1009.6 |
| 20260905181507 | 88 | 162 | 3.0 | 0.0 | 0.00 | 0.00 | 0.00 | 56 | 1009.9 |
| 20260905180004 | 88 | 222 | 4.0 | 0.0 | 0.00 | 0.00 | 0.00 | 56 | 1010.2 |
| 20260905174502 | 87 | 221 | 4.0 | 0.0 | 0.00 | 0.00 | 0.00 | 59 | 1010.3 |
| 20260905173003 | 88 | 142 | 5.0 | 0.0 | 0.00 | 0.00 | 0.00 | 59 | 1010.4 |
| 20260905171605 | 85 | 177 | 5.0 | 0.0 | 0.00 | 0.00 | 0.00 | 63 | 1010.6 |
| 20260905170109 | 84 | 189 | 4.0 | 0.0 | 0.00 | 0.00 | 0.00 | 66 | 1010.8 |
| 20260905164606 | 84 | 181 | 4.0 | 0.0 | 0.00 | 0.00 | 0.00 | 66 | 1010.8 |
| 20260905163104 | 85 | 225 | 4.0 | 0.0 | 0.00 | 0.00 | 0.00 | 65 | 1010.8 |
| 20260905160004 | 83 | 156 | 5.0 | 0.0 | 0.00 | 0.00 | 0.00 | 67 | 1010.8 |
| 20260905154504 | 83 | 163 | 6.0 | 0.0 | 0.00 | 0.00 | 0.00 | 72 | 1010.6 |
| 20260905153105 | 81 | 222 | 5.0 | 0.0 | 0.00 | 0.00 | 0.00 | 76 | 1010.8 |